Flag Weather past 2 weeks in Hannover, Lower Saxony, Germany

Now
36 °F

Partly sunny.


Feels Like: 25 °F
Forecast: 31 / 36 °F
Wind: 17 mph from East

Location: Hannover

Current Time: Nov 28, 2014 at 12:07:44 PM

Latest Report: Nov 28, 2014 at 11:20 AM


Visibility: 5 mi

Pressure: 30.01 "Hg

Humidity: 87%

Dew point: 32 °F

Location of HannoverLocation

Historic Weather in Hannover — Graph

°F

Hannover temperature yesterday

Maximum temperature yesterday: 39 °F (at 12:50 PM)
Minimum temperature yesterday: 32 °F (at 5:50 AM)
Average temperature yesterday: 35 °F

Past Weeks' High & Low Weather Summary

 TemperatureHumidityPressure
High55 °F (Nov 23, 1:50 PM)100% (Nov 16, 10:20 AM)30.36 "Hg (Nov 16, 10:20 AM)
Low30 °F (Nov 21, 5:20 AM)63% (Nov 23, 2:50 PM)29.50 "Hg (Nov 16, 12:50 PM)
Average44 °F90%30.01 "Hg
* Reported Nov 13 10:20 AM — Nov 28 10:50 AM, Hannover, Weather by CustomWeather, © 2014

Note: Actual official high and low records may vary slightly from our data, if they occured in-between our weather recording intervals... More about our weather records

Advertising

Hannover weather history for previous 24 hours

 ConditionsComfort  
Time TempWeatherWind HumidityBarometerVisibility
10:50 AM
Nov 28
37 °FPartly sunny.16 mph81%30.01 "Hg5 mi
10:20 AM37 °FPartly sunny.17 mph81%29.98 "Hg5 mi
9:50 AM37 °FPartly sunny.17 mph81%29.98 "Hg5 mi
9:20 AM37 °FPartly sunny.17 mph81%29.98 "Hg5 mi
8:50 AM37 °FPartly sunny.15 mph81%29.98 "Hg5 mi
8:20 AM36 °FScattered clouds.15 mph87%29.95 "Hg5 mi
7:50 AM36 °FPassing clouds.15 mph87%29.95 "Hg5 mi
7:20 AM36 °FPassing clouds.15 mph87%29.95 "Hg5 mi
6:50 AM36 °FPassing clouds.15 mph87%29.95 "Hg5 mi
6:20 AM36 °FPassing clouds.14 mph87%29.95 "Hg5 mi
5:50 AM36 °FPassing clouds.15 mph81%29.92 "Hg5 mi
5:20 AM36 °FPassing clouds.16 mph81%29.92 "Hg5 mi
4:20 AM36 °FPassing clouds.13 mph87%29.92 "Hg5 mi
3:50 AM36 °FPassing clouds.12 mph87%29.92 "Hg5 mi
3:20 AM36 °FChilly.12 mph87%29.92 "HgN/A
2:50 AM36 °FPassing clouds.12 mph87%29.92 "Hg5 mi
2:20 AM36 °FPassing clouds.12 mph87%29.92 "Hg5 mi
1:50 AM36 °FPassing clouds.13 mph87%29.89 "Hg5 mi
1:20 AM36 °FPassing clouds.12 mph87%29.89 "Hg5 mi
12:50 AM36 °FPassing clouds.14 mph87%29.89 "Hg5 mi
12:20 AM36 °FClear.15 mph87%29.89 "Hg10 mi
11:50 PM
Nov 27
36 °FClear.13 mph87%29.92 "Hg10 mi
11:20 PM36 °FClear.12 mph87%29.92 "Hg10 mi
10:50 PM36 °FClear.12 mph87%29.92 "Hg10 mi
10:20 PM36 °FClear.12 mph87%29.92 "Hg10 mi
9:50 PM36 °FClear.10 mph87%29.92 "Hg10 mi
9:20 PM36 °FClear.9 mph87%29.89 "Hg10 mi
8:50 PM36 °FClear.9 mph87%29.89 "Hg10 mi
8:20 PM34 °FClear.9 mph93%29.89 "Hg10 mi
7:50 PM34 °FClear.9 mph93%29.89 "Hg10 mi
7:20 PM36 °FClear.12 mph87%29.89 "Hg10 mi
6:50 PM36 °FClear.9 mph87%29.89 "Hg10 mi
6:20 PM37 °FClear.12 mph81%29.89 "Hg10 mi
5:50 PM37 °FClear.10 mph81%29.89 "Hg10 mi
5:20 PM37 °FClear.10 mph81%29.89 "Hg10 mi
4:50 PM37 °FClear.10 mph81%29.89 "Hg10 mi
4:20 PM37 °FClear.12 mph81%29.86 "Hg10 mi
3:50 PM37 °FSunny.12 mph81%29.86 "Hg10 mi
3:20 PM39 °FSunny.10 mph75%29.86 "Hg10 mi
2:50 PM39 °FSunny.10 mph75%29.86 "Hg10 mi
2:20 PM39 °FSunny.10 mph81%29.86 "Hg10 mi
1:50 PM39 °FSunny.13 mph81%29.89 "Hg10 mi
1:20 PM39 °FSunny.13 mph81%29.89 "Hg10 mi
12:50 PM39 °FSunny.13 mph75%29.89 "Hg10 mi
12:20 PM37 °FClear.13 mph81%29.89 "Hg6 mi
Weather by CustomWeather, © 2014

See weather overviewHow to use our weather pages